Weather History for K12N - January, 2012

Change the Weather History Date:

Sunday, January 1, 2012

  Actual Average (KFWN) Record (KFWN)
Temperature  
Mean Temperature 42 °F -  
Max Temperature 51 °F 37 °F 62 °F (1973)
Min Temperature 32 °F 15 °F -12 °F (1964)
Degree Days  
Heating Degree Days 24    
Moisture  
Dew Point 37 °F    
Average Humidity 84    
Maximum Humidity 100    
Minimum Humidity 59    
Precipitation  
Precipitation 0.09 in - - ()
Sea Level Pressure  
Sea Level Pressure 29.94 in    
Wind  
Wind Speed 3 mph (SSW)    
Max Wind Speed 10 mph    
Max Gust Speed 20 mph    
Averages and records for this station are not official NWS values.
T = Trace of Precipitation, MM = Missing Value Source: NWS Daily Summary

Daily Weather History Graph

Daily Weather History Graph

Search for Another Location

Airport or City:

Trip Planner

Search our weather history database for the weather conditions in past years. The results will help you decide how hot, cold, wet, or windy it might be!

Date:

Astronomy

Jan. 01, 2012 Rise Set
Actual Time 7:23 AM EST 4:40 PM EST
Civil Twilight 6:52 AM EST 5:11 PM EST
Nautical Twilight 6:18 AM EST 5:46 PM EST
Astronomical Twilight 5:44 AM EST 6:19 PM EST
Moon 11:30 AM EST (1/1) 12:14 AM EST (1/1)
Length of Visible Light 10h 19m
Length of Day
9h 17m
First Quarter, 54% of the Moon is Illuminated
Jan 1
First Quarter
Jan 9
Full
Jan 16
Last Quarter
Jan 23
New
Jan 30
First Quarter

Hourly Weather History & Observations

Time (EST) Temp. Windchill Dew Point Humidity Pressure Visibility Wind Dir Wind Speed Gust Speed Precip Events Conditions
12:54 AM 36.0 °F - 35.1 °F 97% 30.06 in - Calm Calm - N/A   Unknown
1:54 AM 35.1 °F 32.2 °F 34.0 °F 96% 30.08 in - NNW 3.5 mph - N/A   Unknown
2:54 AM 33.1 °F - 32.0 °F 96% 30.08 in - Calm Calm - N/A   Unknown
3:54 AM 32.0 °F - 30.9 °F 96% 30.06 in - Calm Calm - N/A   Unknown
4:54 AM 32.0 °F 28.7 °F 32.0 °F 100% 30.09 in - South 3.5 mph - N/A   Unknown
5:54 AM 32.0 °F 28.7 °F 30.9 °F 96% 30.10 in - South 3.5 mph - N/A   Unknown
6:54 AM 34.0 °F - 34.0 °F 100% 30.10 in - Calm Calm - N/A   Unknown
7:54 AM 34.0 °F - 33.1 °F 96% 30.12 in - Calm Calm - N/A   Unknown
8:54 AM 37.0 °F - 36.0 °F 96% 30.12 in - Calm Calm - N/A   Unknown
9:54 AM 44.1 °F - 37.9 °F 79% 30.08 in - Calm Calm - N/A   Unknown
10:54 AM 46.9 °F - 37.9 °F 71% 30.04 in - Variable 3.5 mph - N/A   Unknown
11:54 AM 50.0 °F - 36.0 °F 59% 29.99 in - South 8.1 mph - N/A   Unknown
12:54 PM 50.0 °F - 36.0 °F 59% 29.93 in - SSW 6.9 mph - N/A   Unknown
1:54 PM 51.1 °F - 37.0 °F 59% 29.88 in - SSW 10.4 mph 19.6 mph N/A   Unknown
2:54 PM 51.1 °F - 37.0 °F 59% 29.84 in - SSW 8.1 mph 16.1 mph N/A   Unknown
3:54 PM 50.0 °F - 37.0 °F 61% 29.85 in - SSW 8.1 mph - N/A   Unknown
5:54 PM 45.0 °F 43.5 °F 43.0 °F 93% 29.80 in - South 3.5 mph - 0.03 in   Unknown
6:54 PM 45.0 °F 42.6 °F 42.1 °F 90% 29.78 in - South 4.6 mph - 0.03 in   Unknown
7:54 PM 46.0 °F 43.1 °F 43.0 °F 89% 29.75 in - Variable 5.8 mph - 0.01 in   Unknown
8:54 PM 46.0 °F 44.8 °F 43.0 °F 89% 29.74 in - Variable 3.5 mph - N/A   Unknown
9:54 PM 46.0 °F 43.9 °F 43.0 °F 89% 29.70 in - SSW 4.6 mph - 0.02 in   Unknown
10:54 PM 46.0 °F 43.1 °F 43.0 °F 89% 29.70 in - SSW 5.8 mph - N/A   Unknown
11:54 PM 45.0 °F 41.2 °F 39.9 °F 82% 29.69 in - Variable 6.9 mph 16.1 mph N/A   Unknown